Flag for U.S.A. Weather past 2 weeks in Oceanside, California, U.S.A.

Now
66 °F

Sunny.


Feels Like: 66 °F
Forecast: 51 / 78 °F
Wind: 8 mph from West

Location: Oceanside Weather Reporting Station

Current Time: Apr 26, 2015 at 5:59:39 PM

Latest Report: Apr 26, 2015 at 4:52 PM


Visibility: 10 mi

Pressure: 29.92 "Hg

Humidity: 59%

Dew point: 51 °F

Location of OceansideLocation

Historic Weather in Oceanside — Graph

°F

Oceanside temperature yesterday

Maximum temperature yesterday: 65 °F (at 12:52 PM)
Minimum temperature yesterday: 60 °F (at 5:52 AM)
Average temperature yesterday: 62 °F

Past Weeks' High & Low Weather Summary

 TemperatureHumidityPressure
High81 °F (Apr 16, 11:52 AM)93% (Apr 15, 3:52 AM)30.09 "Hg (Apr 15, 3:52 AM)
Low42 °F (Apr 18, 5:52 AM)6% (Apr 16, 11:52 AM)29.85 "Hg (Apr 20, 5:52 PM)
Average61 °F66%29.95 "Hg
* Reported Apr 11 4:52 PM — Apr 26 4:52 PM, Oceanside, Weather by CustomWeather, © 2015

Note: Actual official high and low records may vary slightly from our data, if they occured in-between our weather recording intervals... More about our weather records

Advertising

Oceanside weather history for previous 24 hours

 ConditionsComfort  
Time TempWeatherWind HumidityBarometerVisibility
4:52 PM
Sun, Apr 26
66 °FSunny.8 mph59%29.92 "Hg10 mi
3:52 PM68 °FSunny.12 mph55%29.94 "Hg10 mi
2:52 PM68 °FSunny.12 mph57%29.96 "Hg10 mi
1:52 PM68 °FSunny.8 mph57%29.97 "Hg10 mi
12:52 PM68 °FSunny.12 mph57%29.98 "Hg10 mi
11:52 AM68 °FPassing clouds.7 mph55%29.99 "Hg10 mi
10:52 AM67 °FPassing clouds.6 mph55%30.00 "Hg10 mi
9:52 AM63 °FMostly cloudy.3 mph63%30.00 "Hg10 mi
8:52 AM63 °FBroken clouds.6 mph65%29.99 "Hg10 mi
7:52 AM58 °FPartly sunny.No wind81%29.98 "Hg10 mi
6:52 AM53 °FPassing clouds.No wind89%29.97 "Hg10 mi
5:52 AM53 °FOvercast.No wind86%29.95 "Hg10 mi
4:52 AM54 °FOvercast.No wind86%29.93 "Hg10 mi
3:52 AM56 °FOvercast.6 mph81%29.93 "Hg10 mi
2:52 AM57 °FOvercast.3 mph78%29.92 "Hg10 mi
1:52 AM59 °FOvercast.No wind75%29.93 "Hg10 mi
12:52 AM60 °FOvercast.No wind72%29.93 "Hg10 mi
11:52 PM
Sat, Apr 25
60 °FOvercast.No wind72%29.93 "Hg10 mi
10:52 PM60 °FOvercast.3 mph75%29.93 "Hg10 mi
9:52 PM60 °FClear.8 mph69%29.93 "Hg10 mi
8:52 PM60 °FPassing clouds.9 mph75%29.91 "Hg10 mi
7:52 PM61 °FLight rain. Broken clouds.8 mph78%29.90 "Hg10 mi
6:52 PM62 °FLight rain. Partly sunny.9 mph80%29.89 "Hg10 mi
5:52 PM61 °FLight rain. Cloudy.9 mph87%29.89 "Hg10 mi
Weather by CustomWeather, © 2015

See weather overviewHow to use our weather pages